Location: La Brionne
(46.1728°N, 1.7849°E)
Time: 11:21:40
(UTC+00:00)

Max Valier Satellite - Visible Passes

Search period start: 02 April 2023 00:00
Search period end: 12 April 2023 00:00
Orbit: 454 x 466 km, 97.2° (Epoch: 02 April)

Date Brightness Start Highest point End Pass type
(mag) Time Alt. Az. Time Alt. Az. Time Alt. Az.
02 Apr ? 18:54:25 10° SSE 18:57:43 48° ENE 19:01:03 10° N visible
02 Apr ? 20:29:55 10° WSW 20:31:00 11° W 20:32:04 10° WNW visible
03 Apr ? 19:55:57 10° SSW 19:58:52 26° W 20:01:48 10° NW visible
04 Apr ? 19:23:25 10° S 19:26:49 68° WSW 19:30:15 10° NNW visible
05 Apr ? 18:51:36 10° SE 18:54:52 44° ENE 18:58:11 10° N visible
05 Apr ? 20:26:42 10° WSW 20:28:06 12° W 20:29:31 10° WNW visible
06 Apr ? 19:52:50 10° SSW 19:55:50 28° W 19:58:51 10° NW visible
07 Apr ? 19:20:14 10° S 19:23:39 75° WSW 19:27:06 10° NNW visible
08 Apr ? 20:23:03 10° WSW 20:24:44 13° W 20:26:27 10° WNW visible
09 Apr ? 19:49:15 10° SSW 19:52:19 31° W 19:55:26 10° NNW visible
10 Apr ? 19:16:35 10° S 19:20:00 83° WSW 19:23:28 10° NNW visible
11 Apr ? 20:18:56 10° SW 20:20:55 14° W 20:22:53 10° NW visible
